Home   Weather   Victoria   Past weeks

Flag for Seychelles Past Weather in Victoria, Seychelles — Yesterday and Last 2 Weeks

81 °F

Partly cloudy.

Feels Like: 85 °F
Forecast: 75 / 81 °F
Wind: 14 mph from Southeast

Location: National Airport

Current Time: Oct 21, 2016 at 1:35:42 AM

Latest Report: Oct 21, 2016 at 1:00 AM

Visibility: N/A

Pressure: 29.86 "Hg

Humidity: 79%

Dew Point: 73 °F

Location of VictoriaLocation

Past Weather in Victoria — Graph


Victoria Temperature Yesterday

Maximum temperature yesterday: 84 °F (at 10:00 AM)
Minimum temperature yesterday: 77 °F (at 1:00 PM)
Average temperature yesterday: 80 °F

High & Low Weather Summary for the Past Weeks

High88 °F (Oct 6, 1:00 PM)94% (Oct 13, 10:00 PM)29.98 "Hg (Oct 13, 10:00 PM)
Low77 °F (Oct 7, 4:00 AM)55% (Oct 6, 1:00 PM)29.83 "Hg (Oct 6, 3:00 PM)
Average82 °F73%29.91 "Hg
* Reported Oct 6 12:00 AM — Oct 21 12:00 AM, Victoria, Weather by CustomWeather, © 2016

Note: Actual official high and low records may vary slightly from our data, if they occured in-between our weather recording intervals... More about our weather records


Victoria Weather History for the Previous 24 Hours

Scroll right to see more
Time TempWeatherWind HumidityBarometerVisibility
12:00 AM
Fri, Oct 21
79 °FPartly cloudy.12 mph79%29.89 "HgN/A
11:00 PM
Thu, Oct 20
79 °FPartly cloudy.13 mph79%29.92 "HgN/A
10:00 PM77 °FRain showers. Partly cloudy.10 mph89%29.92 "HgN/A
9:00 PM81 °FPassing clouds.14 mph79%29.89 "HgN/A
8:00 PM81 °FPartly cloudy.14 mph74%29.89 "HgN/A
7:00 PM81 °FPassing clouds.15 mph74%29.89 "HgN/A
6:00 PM79 °FBroken clouds.12 mph79%29.86 "HgN/A
5:00 PM79 °FBroken clouds.16 mph79%29.83 "HgN/A
4:00 PM79 °FBroken clouds.10 mph79%29.83 "HgN/A
3:00 PM81 °FPartly sunny.9 mph74%29.83 "HgN/A
2:00 PM79 °FSprinkles. Partly sunny.7 mph79%29.86 "HgN/A
1:00 PM77 °FSprinkles. Partly sunny.10 mph89%29.89 "HgN/A
12:00 PM79 °FBroken clouds.15 mph74%29.92 "HgN/A
11:00 AM82 °FBroken clouds.9 mph66%29.92 "HgN/A
10:00 AM84 °FPartly sunny.12 mph62%29.92 "HgN/A
9:00 AM82 °FPartly sunny.12 mph70%29.95 "HgN/A
8:00 AM81 °FBroken clouds.10 mph79%29.92 "HgN/A
7:00 AM81 °FPartly sunny.12 mph79%29.92 "HgN/A
6:00 AM79 °FScattered clouds.10 mph79%29.89 "HgN/A
5:00 AM79 °FPartly cloudy.10 mph84%29.89 "HgN/A
4:00 AM79 °FPartly cloudy.15 mph79%29.86 "HgN/A
3:00 AM79 °FPassing clouds.10 mph79%29.86 "HgN/A
2:00 AM79 °FPassing clouds.10 mph84%29.86 "HgN/A
1:00 AM81 °FPassing clouds.13 mph74%29.89 "HgN/A
Weather by CustomWeather, © 2016

See weather overviewHow to use our weather pages